www.pogodaiklimat.ru

Погода и климат >> Архив погоды >> Австралия >> Западная Австралия >> Эсперанс


ПОГОДА в Эсперансе

  • Прогноз погоды в Эсперансе
  • Монитор погоды в Эсперансе

АРХИВ ПОГОДЫ в Эсперансе

Время (UTC), дата Ветер
(напр.,м/с)
 
Видим.   Явления Облачность Т
(С)
Тd
(С)
f
(%)
Тe
(С)
Тes
(С)
Комфортность P
(гПа)
Po
(гПа)
Тmin
(С)
Tmax
(С)
R
(мм)
R24
(мм)
S
(см)
22 13.06 СЗ 4 н/о н/о +8.9 +7.7 92 +6 +6 1021.7 1018.4
00 14.06 СЗ 4 н/о н/о +10.0 +8.4 90 +7 +7 1022.7 1019.4
01 14.06 З 4 н/о н/о +11.4 +8.4 82 +9 +9 1023.1 1019.8 +8.2
03 14.06 СЗ 6 н/о н/о +15.7 +8.2 61 +14 +14 1022.2 1018.9
04 14.06 СЗ 6 н/о 4/4 1000 м
[]
+17.6 +7.4 51 +17 +18 1021.0 1017.7
06 14.06 СЗ 5 н/о н/о +17.1 +6.0 48 +17 +17 1019.5 1016.2
07 14.06 СЗ 5 н/о {туман} 9/9 1500 м
[]
+16.9 +6.7 51 +16 +16 1019.8 1016.5
09 14.06 СЗ 3 н/о н/о +15.8 +7.8 59 +15 +15 1020.1 1016.8
10 14.06 СЗ 4 н/о 9/9 1500 м
[]
+14.9 +7.7 62 +14 +14 1020.4 1017.1
12 14.06 СЗ 5 н/о н/о +14.4 +7.9 65 +13 +13 1020.4 1017.1
13 14.06 СЗ 5 н/о н/о +13.5 +7.7 68 +12 +12 1020.2 1016.9 +18.3
15 14.06 З 4 н/о н/о +11.9 +7.6 75 +10 +10 1020.5 1017.2
16 14.06 СЗ 4 н/о н/о +11.2 +7.9 80 +9 +9 1020.2 1016.9
18 14.06 СЗ 5 н/о н/о +10.5 +8.1 85 +7 +7 1020.0 1016.7
19 14.06 СЗ 4 н/о 10/0
[]
+10.4 +7.8 84 +8 +8 1020.2 1016.9
21 14.06 СЗ 6 н/о н/о +9.9 +7.3 84 +7 +7 1020.5 1017.2
22 14.06 СЗ 4 н/о 10/10 1500 м
[]
+10.1 +7.3 83 +7 +7 1020.6 1017.3
00 15.06 СЗ 7 н/о н/о +10.9 +8.8 87 +7 +7 1021.9 1018.6
01 15.06 СЗ 4 н/о 10/10 200 м
[]
+11.4 +10.3 93 +9 +9 1022.8 1019.5 +9.9
03 15.06 З 4 н/о н/о +14.2 +10.8 80 +13 +13 1022.9 1019.6
04 15.06 З 5 9000 м туман местами 8/8 300 м
[]
+14.5 +10.9 79 +13 +14 1022.5 1019.2
06 15.06 З 4 н/о н/о +12.9 +11.6 92 +11 +11 1022.6 1019.3
07 15.06 З 3 н/о в посл. час дождь {туман} 10/10 600 м
[]
+13.6 +12.7 94 +12 +12 1022.8 1019.5
09 15.06 СЗ 3 н/о н/о +12.9 +12.3 96 +12 +12 1023.5 1020.2
10 15.06 СЗ 3 н/о {туман} 10/10 600 м
[]
+12.3 +11.8 97 +11 +11 1023.9 1020.6
12 15.06 З 2 н/о н/о +12.0 +11.5 97 +11 +11 1024.5 1021.2
13 15.06 З 3 9000 м {туман} 10/10 600 м
[]
+12.1 +11.6 97 +11 +11 1025.1 1021.8 +16.6
15 15.06 СЗ 2 н/о н/о +11.5 +11.3 99 +10 +10 1024.4 1021.1
16 15.06 СЗ 3 н/о {туман} 10/10 1000 м
[]
+11.2 +11.0 99 +9 +9 1024.1 1020.8
18 15.06 СЗ 4 н/о н/о +11.8 +11.6 99 +10 +10 1024.5 1021.2
19 15.06 С 3 н/о {туман} 10/10 600 м
[]
+11.0 +10.8 99 +9 +9 1024.4 1021.1
21 15.06 СЗ 2 н/о н/о +11.4 +11.2 99 +10 +10 1024.1 1020.8
22 15.06 С 1 н/о 10/10 1500 м
[]
+11.5 +11.3 99 +11 +11 1024.2 1020.9
00 16.06 СЗ 4 н/о н/о +11.3 +9.6 89 +9 +9 1024.8 1021.5
01 16.06 СЗ 4 н/о {туман} 1/1 1500 м
[]
+12.9 +9.2 78 +11 +13 1025.0 1021.7 +10.8
03 16.06 СЗ 5 н/о н/о +15.7 +9.6 67 +15 +15 1024.6 1021.3
04 16.06 СЗ 6 н/о 8/8 1500 м
[]
+17.6 +9.5 59 +17 +17 1023.8 1020.5
06 16.06 СЗ 5 н/о н/о +17.0 +6.2 49 +16 +16 1022.6 1019.3
07 16.06 З 4 н/о 9/9 1500 м
[]
+16.6 +7.5 55 +16 +16 1022.8 1019.5
09 16.06 З 3 н/о н/о +15.1 +7.2 59 +14 +14 1022.9 1019.6
10 16.06 З 3 н/о 10/10 1000 м
[]
+14.6 +7.2 61 +14 +14 1023.3 1020.0
12 16.06 СЗ 3 н/о н/о +13.1 +7.8 70 +12 +12 1023.8 1020.5
13 16.06 СЗ 5 н/о 9/0 2000 м
[]
+13.2 +8.3 72 +11 +11 1023.9 1020.6 +18.5
15 16.06 СЗ 4 н/о н/о +11.9 +10.3 90 +10 +10 1023.7 1020.4
16 16.06 З 4 н/о в посл. час дождь {туман} 10/10 300 м
[]
+11.6 +11.1 97 +9 +9 1024.2 1020.9
18 16.06 Ю 6 н/о н/о +13.1 +9.0 76 +11 +11 1025.0 1021.7
19 16.06 ЮЗ 5 н/о {туман} 10/10 600 м
[]
+13.6 +7.8 68 +12 +12 1025.3 1022.0
21 16.06 Ю 5 н/о н/о +12.9 +4.6 57 +11 +11 1026.3 1023.0
22 16.06 Ю 5 н/о {туман} 10/10 1000 м
[]
+12.8 +6.2 64 +11 +11 1027.0 1023.7
00 17.06 ЮЗ 3 н/о н/о +13.0 +6.4 64 +12 +12 1028.3 1025.0
01 17.06 Ю 6 н/о {туман} 10/10 1000 м
[]
+14.0 +6.4 60 +12 +12 1029.0 1025.7 +11.4
03 17.06 Ю 5 н/о н/о +13.2 +7.2 67 +11 +11 1029.7 1026.4
04 17.06 Ю 4 н/о 10/10 600 м
[]
+13.2 +7.6 69 +12 +12 1029.3 1026.0
06 17.06 З 4 н/о н/о +13.4 +6.7 64 +12 +12 1028.9 1025.6
07 17.06 Ю 3 н/о 10/10 1000 м
[]
+13.6 +5.5 58 +13 +13 1029.1 1025.8
09 17.06 Ю 4 н/о н/о +13.1 +5.0 58 +12 +12 1029.5 1026.2
10 17.06 Ю 3 н/о 10/10 1500 м
[]
+12.7 +4.4 57 +11 +11 1029.9 1026.6
12 17.06 Ю 3 н/о н/о +12.2 +3.2 54 +11 +11 1030.3 1027.0
13 17.06 ЮЗ 2 н/о 10/10 1500 м
[]
+12.4 +1.7 48 +12 +12 1030.5 1027.2 +14.8
15 17.06 С 2 н/о н/о +10.9 +4.8 66 +10 +10 1030.1 1026.8
16 17.06 С 2 н/о 10/10 1000 м
[]
+10.7 +5.3 69 +9 +9 1029.6 1026.3
18 17.06 С 2 н/о н/о +10.1 +4.9 70 +9 +9 1029.2 1025.9
19 17.06 С 4 н/о 10/10 1500 м
[]
+10.4 +3.9 64 +8 +8 1028.9 1025.6
21 17.06 С 3 н/о н/о +9.6 +3.1 64 +8 +8 1028.8 1025.5
22 17.06 С 3 н/о 9/9 1500 м
[]
+8.5 +2.7 67 +6 +6 1028.8 1025.5
00 18.06 С 3 н/о н/о +9.2 +3.0 65 +7 +7 1029.6 1026.3
01 18.06 С 5 н/о 9/9 1500 м
[]
+12.0 +3.5 56 +10 +10 1029.6 1026.3 +7.4
03 18.06 СЗ 6 н/о н/о +14.0 +2.0 44 +12 +12 1028.8 1025.5
04 18.06 С 5 н/о 10/10 1500 м
[]
+13.6 +2.8 48 +12 +12 1027.9 1024.6
06 18.06 СЗ 3 н/о н/о +14.3 +3.5 48 +14 +14 1026.0 1022.7
07 18.06 СЗ 4 н/о 8/8 1500 м
[]
+15.5 +2.3 41 +15 +15 1025.8 1022.5
09 18.06 Ю 2 н/о н/о +13.2 +3.8 53 +13 +13 1025.7 1022.4
10 18.06 С 2 н/о 3/0 2000 м
[]
+12.1 +3.3 55 +12 +12 1026.0 1022.7
12 18.06 С 2 н/о н/о +10.4 +4.8 68 +10 +10 1026.0 1022.7
13 18.06 С 3 н/о 1/1 1500 м
[]
+9.2 +4.6 73 +7 +7 1026.1 1022.8 +16.4
15 18.06 С 3 н/о н/о +8.0 +3.7 74 +6 +6 1026.0 1022.7
16 18.06 С 2 н/о н/о +6.4 +3.2 80 +4 +4 1025.6 1022.3
18 18.06 С 4 н/о н/о +6.7 +2.4 74 +3 +3 1025.4 1022.1
19 18.06 С 3 н/о н/о +7.2 +2.1 70 +4 +4 1025.5 1022.2
21 18.06 С 4 н/о н/о +6.0 +2.1 76 +3 +3 1025.2 1021.9
22 18.06 СЗ 3 н/о н/о +7.4 +1.9 68 +5 +5 1025.8 1022.5
00 19.06 СЗ 3 н/о н/о +6.9 +2.4 73 +4 +4 1026.6 1023.3
01 19.06 СЗ 2 н/о н/о +9.9 +3.2 63 +9 +9 1026.7 1023.4 +5.3
03 19.06 СЗ 5 н/о н/о +16.2 +3.6 43 +15 +15 1025.5 1022.2
04 19.06 СЗ 5 н/о н/о +17.4 +3.7 40 +17 +17 1024.9 1021.6
06 19.06 СЗ 3 н/о н/о +17.8 +2.9 37 +18 +18 1024.0 1020.7
07 19.06 З 2 н/о н/о +17.9 +2.2 35 +18 +18 1024.0 1020.7
09 19.06 Ю 2 н/о н/о +13.4 +6.0 61 +13 +13 1024.2 1020.9
10 19.06 Ю 2 н/о н/о +13.0 +6.1 63 +12 +12 1024.5 1021.2
12 19.06 С 3 н/о н/о +9.1 +6.0 81 +7 +7 1025.2 1021.9
13 19.06 С 3 н/о н/о +8.6 +5.7 82 +6 +6 1025.3 1022.0 +18.6
15 19.06 СЗ 3 н/о н/о +6.2 +4.7 90 +3 +3 1025.7 1022.4
16 19.06 С 3 н/о н/о +6.5 +5.6 94 +3 +3 1025.4 1022.1
18 19.06 С 3 н/о н/о +6.4 +4.7 89 +3 +3 1025.3 1022.0
19 19.06 С 3 н/о н/о +6.1 +4.4 89 +3 +3 1025.5 1022.2
21 19.06 С 2 н/о н/о +5.9 +4.2 89 +3 +3 1025.4 1022.1
22 19.06 С 4 н/о н/о +6.1 +3.9 86 +2 +2 1025.8 1022.5
00 20.06 С 2 н/о н/о +6.2 +2.7 78 +4 +4 1026.7 1023.4
01 20.06 С 2 н/о н/о +8.9 +3.5 69 +7 +7 1026.8 1023.5 +5.4
03 20.06 С 4 н/о н/о +15.2 +3.4 45 +14 +14 1025.9 1022.6
04 20.06 С 3 н/о н/о +16.8 +2.0 37 +17 +17 1025.1 1021.8
06 20.06 СВ 3 н/о н/о +16.6 +1.1 35 +17 +17 1024.0 1020.7
07 20.06 В 4 н/о н/о +16.1 +0.7 35 +15 +15 1023.7 1020.4
09 20.06 В 6 н/о н/о +14.1 +6.9 62 +12 +12 1023.9 1020.6
10 20.06 В 4 н/о 9/0
[]
+12.9 +6.5 65 +11 +11 1024.3 1021.0
12 20.06 В 5 н/о н/о +11.6 +6.7 72 +9 +9 1024.3 1021.0
13 20.06 СВ 5 н/о 9/0
[]
+11.8 +4.8 62 +10 +10 1024.5 1021.2 +17.5
15 20.06 В 3 н/о н/о +9.8 +4.4 69 +8 +8 1024.2 1020.9
16 20.06 СВ 4 н/о 1/0
[]
+9.6 +5.0 73 +7 +7 1023.4 1020.1
18 20.06 В 4 н/о н/о +9.2 +5.0 75 +7 +7 1022.7 1019.4
19 20.06 В 3 н/о 6/0
[]
+8.7 +5.1 78 +6 +6 1022.5 1019.2
21 20.06 В 3 н/о н/о +8.5 +5.4 81 +6 +6 1021.9 1018.6
22 20.06 В 4 н/о 10/0
[]
+9.2 +4.8 74 +7 +7 1021.7 1018.4

 

Местоположение метеостанции Эсперанс (Западная Австралия, Австралия): широта -33.83 долгота 121.88 высота над уровнем моря 27 м.

В архиве по умолчанию представлена погода в Эсперансе за последнюю неделю. Архивные данные за месяц целиком и за предыдущие месяцы, начиная с января 2011 года, Вы можете получить, выбрав интересующий диапазон дат из раскрывающегося списка и нажав кнопку "Ввод!".


*Определитесь, кто Вы:
робот инопланетянин человек

Внимание! Время в таблицах - всемирное. Для получения местного времени необходимо прибавить поправку, которая равна 8 ч.

Смотрите также архив погоды в соседних городах и на ближайших метеорологических станциях:

Погода в Эсперансе (Западная Австралия, Австралия) (17 км)
Погода в Салмон Гамс (Западная Австралия, Австралия) (98 км)
Погода в Мунглинап Запад (Западная Австралия, Австралия) (114 км)
Погода в Хоптауне (Западная Австралия, Австралия) (162 км)
Погода в Норсмане (Западная Австралия, Австралия) (179 км)
Погода в Джакапе (Западная Австралия, Австралия) (257 км)
Погода в Ньюдегейте (Западная Австралия, Австралия) (294 км)
Погода на Озере Грейс (Западная Австралия, Австралия) (328 км)
Погода в Калгурли-Боулдере (Западная Австралия, Австралия) (342 км)
Погода в Саутерн Кросс (Западная Австралия, Австралия) (374 км)

Пояснения к столбцам:

Ветер - указаны скорость ветра в м/с - средняя за 10 мин, порывы в срок и между сроками (в фигурных скобках) и направление, откуда дует ветер: С - северный, СВ - северо-восточный, В - восточный, ЮВ - юго-восточный, Ю - южный, ЮЗ - юго-западный, З - западный, СЗ - северо-западный.
Видимость - горизонтальная дальность видимости в метрах или километрах. При видимости от 1 до 10 км при отсутствии осадков обычно наблюдается дымка, при ухудшении видимости до 1 км и менее - туман. В сухую погоду видимость может ухудшаться дымом, пылью или мглою.
Явления - указаны атмосферные явления, наблюдавшиеся в срок или в последний час перед сроком; фигурными скобками обозначены явления, наблюдавшиеся между сроками (за 1-3 часа до срока); квадратными скобками обозначены град или гололедные отложения с указанием их диаметра в мм.
Облачность - указаны через наклонную черту общая и нижняя облачность в баллах и высота нижней границы облаков в метрах; квадратными скобками обозначены формы облаков: Ci - перистые, Cs - перисто-слоистые, Cc - перисто-кучевые, Ac - высококучевые, As - высокослоистые, Sc - слоисто-кучевые, Ns - слоисто-дождевые, Cu - кучевые, Cb - кучево-дождевые. Подробнее классификацию облаков см. в Атласе облаков (PDF).
T - Температура воздуха - температура, измеренная на высоте 2 м над землей.
Td - Температура точки росы - температура, при понижении до которой содержащийся в воздухе водяной пар достигнет насыщения.
f - Относительная влажность воздуха - влажноcть воздуха, измеренная на высоте 2 м над землей.
Te - Эффективная температура - температура, которую ощущает одетый по сезону человек в тени. Характеристика душности погоды. При расчете учитывается влияние влажности воздуха и скорости ветра на теплоощущения человека.
Tes - Эффективная температура на солнце - температура, которую ощущает человек, с поправкой на солнечный нагрев. Характеристика знойности погоды. Зависит от высоты солнца над горизонтом, облачности и скорости ветра. Ночью, в пасмурную погоду, а также при ветре 12 м/с и более поправка равна нулю.
P - Атмосферное давление - приведенное к уровню моря атмосферное давление.
Po - Атмосферное давление - измеренное на уровне метеостанции атмосферное давление.
Tmin - Минимальная температура - минимум температуры воздуха на высоте 2 м над землей.
Tmax - Максимальная температура - максимум температуры воздуха на высоте 2 м над землей.
R - Количество осадков - Количество выпавших осадков за период времени, мм. При наведении курсора мыши на число - период времени, за который выпало указанное количество осадков.
R24 - Количество осадков - Количество выпавших осадков за 24 часа, мм.
S - Снежный покров - Высота снежного покрова, см. При наведении курсора мыши на число - состояние снежного покрова и степень покрытия местности в баллах.